Regional Weather Roundup
Issued by NWS

Home | Current Version | Previous Version | Text Only | Print | Product List | Glossary Off
Versions: 1 2 3 4 5 6 7 8 9 10 11 12 13 14 15 16 17 18 19 20 21 22 23 24 25 26 27 28 29 30 31 32 33 34 35 36 37 38 39 40 41 42 43 44 45 46 47 48 49 50

000
ASUS43 KLSX 240359
RWRMO

WEATHER SUMMARY FOR MISSOURI
NATIONAL WEATHER SERVICE SPRINGFIELD MO
1100 PM CDT FRI JUN 23 2017

NOTE: "FAIR" INDICATES FEW OR NO CLOUDS BELOW 12,000 FEET WITH NO
       SIGNIFICANT WEATHER AND/OR OBSTRUCTIONS TO VISIBILITY.
       CURRENT SKY AND/OR WEATHER CONDITIONS ARE NOT AVAILABLE FOR
       CHILLICOTHE AND FARMINGTON.

MOZ001>031-035>038-043-044-053-054-240500-
...NORTHERN AND WESTERN MISSOURI...

CITY           SKY/WX    TMP DP  RH WIND       PRES   REMARKS
KANSAS CTY INT CLEAR     66  54  65 NW5       30.08R
KANSAS C DTWN  CLEAR     71  54  54 CALM      30.07R
LEE`S SUMMIT   CLEAR     68  54  60 NW7       30.08R
ST JOSEPH      CLEAR     63  56  78 CALM      30.07R
CHILLICOTHE      N/A     67  55  65 VRB3      30.06R
KIRKSVILLE     CLEAR     63  55  75 NW7       30.03R

$$
MOZ066>068-077>081-088>096-101>105-240500-
...SOUTHWEST MISSOURI...

CITY           SKY/WX    TMP DP  RH WIND       PRES   REMARKS
SPRINGFIELD    CLEAR     68  57  68 N9        30.03R
JOPLIN         CLEAR     68  59  73 N7        30.06R
BRANSON        CLEAR     66  63  88 CALM      30.04R

$$
MOZ032>034-039>042-045>050-055>058-069>072-240500-
...CENTRAL MISSOURI...

CITY           SKY/WX    TMP DP  RH WIND       PRES   REMARKS
COLUMBIA       CLEAR     70  55  59 NW10      30.02R
JEFFERSON CITY CLEAR     72  53  51 NW6       30.00R
ROLLA          PTCLDY    66  53  63 NW6       30.00R
SEDALIA        CLEAR     66  57  72 NW6       30.06R
WARRENSBURG    CLEAR     64  54  68 W3        30.06R
OSAGE BEACH    CLEAR     68  52  56 VRB6      30.03R

$$
MOZ051-052-059>065-240500-
...EAST CENTRAL MISSOURI...

CITY           SKY/WX    TMP DP  RH WIND       PRES   REMARKS
ST LOUIS INTL  CLOUDY    75  54  47 NW8       29.96R
SPIRIT OF STL  CLEAR     72  56  57 NW10      29.95R
ST CHARLES     PTCLDY    72  55  55 NW7       29.95R

$$
MOZ072>076-082>087-097>100-106>115-240500-
...SOUTH CENTRAL AND SOUTHEAST MISSOURI...

CITY           SKY/WX    TMP DP  RH WIND       PRES   REMARKS
CAPE GIRARDEAU CLOUDY    72  61  68 NW6       29.93R
FARMINGTON     CLOUDY    66  60  81 CALM      29.98R
POPLAR BLUFF   CLOUDY    71  67  87 CALM      29.94R
WEST PLAINS    CLOUDY    64  60  87 CALM      30.02R

$$



USA.gov is the U.S. government's official web portal to all federal, state and local government web resources and services.